• In Uzbekistan
  • List of Countries
  • For 7 days
  • Water Temperature
  • Weather Map
  • Weather Widgets
  • user-avatar
    Login

    Hourly Weather Herāt

    Today, 2 April, Thursday

    Time Temperature Precipitation Wind Pressure Humidity
    00:00 +14°C° 0 mm 2 mps 680 mmHg 47%
    01:00 +13°C° 0 mm 2 mps 680 mmHg 46%
    02:00 +13°C° 0 mm 2 mps 679 mmHg 45%
    03:00 +13°C° 0 mm 2 mps 679 mmHg 43%
    04:00 +11°C° 0 mm 3 mps 679 mmHg 41%
    05:00 +13°C° 0 mm 2 mps 679 mmHg 41%
    06:00 +13°C° 0 mm 2 mps 679 mmHg 42%
    07:00 +14°C° 0 mm 2 mps 679 mmHg 42%
    08:00 +16°C° 0 mm 2 mps 680 mmHg 36%
    09:00 +18°C° 0 mm 2 mps 680 mmHg 31%
    10:00 +19°C° 0 mm 3 mps 680 mmHg 25%
    11:00 +21°C° 0 mm 3 mps 680 mmHg 24%
    12:00 +22°C° 0 mm 4 mps 680 mmHg 22%
    13:00 +23°C° 0 mm 5 mps 679 mmHg 21%
    14:00 +23°C° 0 mm 5 mps 679 mmHg 22%
    15:00 +23°C° 0 mm 5 mps 678 mmHg 23%
    16:00 +23°C° 0 mm 6 mps 678 mmHg 25%
    17:00 +22°C° 0 mm 5 mps 678 mmHg 29%
    18:00 +20°C° 0 mm 4 mps 678 mmHg 33%
    19:00 +19°C° 0 mm 4 mps 678 mmHg 37%
    20:00 +19°C° 0.1 mm 4 mps 678 mmHg 38%
    21:00 +18°C° 0.1 mm 4 mps 678 mmHg 39%
    22:00 +18°C° 0.1 mm 4 mps 678 mmHg 40%
    23:00 +17°C° 0.1 mm 3 mps 678 mmHg 42%

    Tomorrow, 3 April, Friday

    Time Temperature Precipitation Wind Pressure Humidity
    00:00 +17°C° 0.1 mm 3 mps 678 mmHg 44%
    01:00 +16°C° 0.1 mm 2 mps 678 mmHg 46%
    02:00 +16°C° 0 mm 2 mps 678 mmHg 46%
    03:00 +16°C° 0 mm 2 mps 678 mmHg 47%
    04:00 +16°C° 0 mm 2 mps 678 mmHg 47%
    05:00 +16°C° 0 mm 2 mps 678 mmHg 46%
    06:00 +17°C° 0 mm 2 mps 679 mmHg 45%
    07:00 +18°C° 0 mm 2 mps 679 mmHg 45%
    08:00 +20°C° 0 mm 2 mps 679 mmHg 38%
    09:00 +22°C° 0 mm 3 mps 680 mmHg 32%
    10:00 +25°C° 0 mm 3 mps 680 mmHg 26%
    11:00 +26°C° 0 mm 4 mps 680 mmHg 25%
    12:00 +27°C° 0 mm 5 mps 680 mmHg 23%
    13:00 +27°C° 0 mm 5 mps 680 mmHg 21%
    14:00 +27°C° 0 mm 5 mps 679 mmHg 23%
    15:00 +26°C° 0 mm 4 mps 679 mmHg 24%
    16:00 +26°C° 0 mm 4 mps 678 mmHg 26%
    17:00 +24°C° 0.1 mm 3 mps 678 mmHg 31%
    18:00 +22°C° 0.1 mm 3 mps 679 mmHg 35%
    19:00 +21°C° 0.1 mm 2 mps 679 mmHg 40%
    20:00 +20°C° 0.1 mm 3 mps 679 mmHg 44%
    21:00 +19°C° 0.1 mm 3 mps 679 mmHg 48%
    22:00 +18°C° 0.1 mm 4 mps 679 mmHg 51%
    23:00 +18°C° 0 mm 3 mps 678 mmHg 53%

    Day after tomorrow, 4 April, Saturday

    Time Temperature Precipitation Wind Pressure Humidity
    00:00 +18°C° 0 mm 3 mps 678 mmHg 55%
    01:00 +17°C° 0 mm 3 mps 678 mmHg 57%
    02:00 +17°C° 0.3 mm 2 mps 678 mmHg 58%
    03:00 +17°C° 0.3 mm 2 mps 677 mmHg 60%
    04:00 +16°C° 0.3 mm 1 mps 677 mmHg 62%
    05:00 +16°C° 0.5 mm 1 mps 678 mmHg 61%
    06:00 +18°C° 0.5 mm 1 mps 678 mmHg 60%
    07:00 +18°C° 0.5 mm 1 mps 679 mmHg 59%
    08:00 +18°C° 0.2 mm 2 mps 679 mmHg 55%
    09:00 +19°C° 0.2 mm 2 mps 679 mmHg 50%
    10:00 +20°C° 0.2 mm 3 mps 680 mmHg 46%
    11:00 +21°C° 0 mm 2 mps 679 mmHg 41%
    12:00 +23°C° 0 mm 2 mps 679 mmHg 36%
    13:00 +24°C° 0 mm 2 mps 679 mmHg 31%
    14:00 +24°C° 0 mm 2 mps 679 mmHg 32%
    15:00 +24°C° 0 mm 3 mps 679 mmHg 34%
    16:00 +23°C° 0 mm 4 mps 679 mmHg 35%
    17:00 +22°C° 0 mm 3 mps 679 mmHg 42%
    18:00 +20°C° 0 mm 3 mps 679 mmHg 48%
    19:00 +19°C° 0 mm 2 mps 679 mmHg 54%
    20:00 +18°C° 0.2 mm 2 mps 679 mmHg 59%
    21:00 +17°C° 0.2 mm 2 mps 680 mmHg 64%
    22:00 +16°C° 0.2 mm 3 mps 680 mmHg 69%
    23:00 +16°C° 0 mm 2 mps 680 mmHg 70%

    5 April, Sunday

    Time Temperature Precipitation Wind Pressure Humidity
    00:00 +15°C° 0 mm 2 mps 680 mmHg 70%
    01:00 +15°C° 0 mm 1 mps 680 mmHg 71%
    02:00 +15°C° 0 mm 1 mps 679 mmHg 69%
    03:00 +15°C° 0 mm 1 mps 679 mmHg 67%
    04:00 +15°C° 0 mm 1 mps 679 mmHg 66%
    05:00 +15°C° 0 mm 2 mps 680 mmHg 62%
    06:00 +16°C° 0 mm 2 mps 680 mmHg 59%
    07:00 +17°C° 0 mm 2 mps 680 mmHg 56%
    08:00 +18°C° 0 mm 2 mps 681 mmHg 48%
    09:00 +21°C° 0 mm 1 mps 681 mmHg 41%
    10:00 +22°C° 0 mm 1 mps 681 mmHg 33%
    11:00 +23°C° 0 mm 1 mps 681 mmHg 32%
    12:00 +23°C° 0 mm 2 mps 681 mmHg 31%
    13:00 +24°C° 0 mm 2 mps 681 mmHg 30%
    14:00 +24°C° 0.1 mm 3 mps 680 mmHg 35%
    15:00 +22°C° 0.1 mm 4 mps 680 mmHg 39%
    16:00 +22°C° 0.1 mm 4 mps 679 mmHg 43%
    17:00 +21°C° 0.1 mm 4 mps 679 mmHg 50%
    18:00 +19°C° 0.1 mm 4 mps 679 mmHg 56%
    19:00 +18°C° 0.1 mm 4 mps 679 mmHg 62%
    20:00 +16°C° 0.5 mm 5 mps 679 mmHg 66%
    21:00 +16°C° 0.5 mm 5 mps 680 mmHg 69%
    22:00 +15°C° 0.5 mm 6 mps 680 mmHg 72%
    23:00 +14°C° 3.5 mm 5 mps 679 mmHg 78%

    6 April, Monday

    Time Temperature Precipitation Wind Pressure Humidity
    00:00 +13°C° 3.5 mm 5 mps 679 mmHg 83%
    01:00 +12°C° 3.5 mm 4 mps 678 mmHg 89%
    02:00 +12°C° 4.1 mm 4 mps 678 mmHg 88%
    03:00 +12°C° 4.1 mm 4 mps 678 mmHg 88%
    04:00 +12°C° 4.1 mm 3 mps 678 mmHg 87%
    05:00 +12°C° 1.1 mm 4 mps 679 mmHg 84%
    06:00 +12°C° 1.1 mm 4 mps 679 mmHg 82%
    07:00 +13°C° 1.1 mm 4 mps 680 mmHg 79%
    08:00 +14°C° 0.1 mm 5 mps 680 mmHg 74%
    09:00 +14°C° 0.1 mm 5 mps 680 mmHg 69%
    10:00 +15°C° 0.1 mm 6 mps 681 mmHg 64%
    11:00 +16°C° 0 mm 6 mps 681 mmHg 61%
    12:00 +17°C° 0 mm 5 mps 681 mmHg 59%
    13:00 +18°C° 0 mm 4 mps 680 mmHg 56%
    14:00 +19°C° 0 mm 4 mps 680 mmHg 54%
    15:00 +19°C° 0 mm 4 mps 680 mmHg 52%
    16:00 +19°C° 0 mm 4 mps 680 mmHg 51%
    17:00 +18°C° 0 mm 3 mps 680 mmHg 57%
    18:00 +17°C° 0 mm 3 mps 679 mmHg 63%
    19:00 +16°C° 0 mm 3 mps 679 mmHg 69%
    20:00 +16°C° 0 mm 2 mps 679 mmHg 71%
    21:00 +15°C° 0 mm 2 mps 679 mmHg 73%
    22:00 +15°C° 0 mm 1 mps 679 mmHg 75%
    23:00 +15°C° 0 mm 1 mps 679 mmHg 75%

    7 April, Tuesday

    Time Temperature Precipitation Wind Pressure Humidity
    00:00 +13°C° 0 mm 0 mps 679 mmHg 76%
    01:00 +13°C° 0 mm 0 mps 678 mmHg 76%
    02:00 +13°C° 0 mm 0 mps 678 mmHg 77%
    03:00 +12°C° 0 mm 0 mps 678 mmHg 78%
    04:00 +12°C° 0 mm 0 mps 678 mmHg 78%
    05:00 +13°C° 0 mm 0 mps 678 mmHg 74%
    06:00 +14°C° 0 mm 0 mps 678 mmHg 71%
    07:00 +15°C° 0 mm 0 mps 679 mmHg 67%
    08:00 +16°C° 0 mm 0 mps 679 mmHg 61%
    09:00 +17°C° 0 mm 0 mps 679 mmHg 55%
    10:00 +20°C° 0 mm 1 mps 680 mmHg 48%
    11:00 +22°C° 0 mm 1 mps 680 mmHg 43%
    12:00 +23°C° 0 mm 2 mps 680 mmHg 38%
    13:00 +24°C° 0 mm 3 mps 680 mmHg 34%
    14:00 +22°C° 0 mm 4 mps 680 mmHg 40%
    15:00 +21°C° 0 mm 5 mps 680 mmHg 47%
    16:00 +20°C° 0 mm 6 mps 680 mmHg 54%
    17:00 +19°C° 0 mm 6 mps 680 mmHg 59%
    18:00 +16°C° 0 mm 6 mps 680 mmHg 64%
    19:00 +15°C° 0 mm 5 mps 680 mmHg 68%
    20:00 +15°C° 0 mm 5 mps 680 mmHg 68%
    21:00 +14°C° 0 mm 5 mps 680 mmHg 69%
    22:00 +14°C° 0 mm 5 mps 680 mmHg 69%
    23:00 +13°C° 0 mm 4 mps 680 mmHg 70%
    Show more